Wind_Speed
17 10 11 5 9 15 15 11 2 6 4 3 6 5 9 11 7 6 4 1 1 5 4 4 3 3 5 6 6 9 3 4 5 6 6 8 9 10 11 11 14 12 13 14
20 17 15 11 9 6 7 6 2 3 4 3 4 10 13 13 10 9 7 3 6 5 2 2 1 3 6 7 8 5 3 1 2 6 7 8 9 8 9 10 10 10 11 8
25 23 17 12 9 9 8 7 1 11 12 10 10 11 11 13 12 13 9 10 10 7 9 6 5 4 4 5 6 6 6 3 1 5 8 9 10 8 9 8 9 9 10 10
24 25 17 14 13 9 10 6 10 12 12 9 15 7 6 7 12 17 16 15 11 10 10 10 12 9 6 7 7 4 1 2 1 4 6 9 11 10 9 12 11 10 10 11
25 21 23 16 9 7 8 7 8 11 8 13 13 6 6 10 9 7 15 17 15 13 15 13 12 10 9 9 7 6 5 5 6 8 6 10 15 16 15 15 14 13 12 11
22 18 17 15 5 5 11 9 11 5 5 5 7 5 9 8 9 11 13 9 8 12 14 14 13 13 11 8 8 8 7 11 15 15 11 25 21 28 22 20 17 11 9 11
27 25 19 13 11 7 7 14 3 2 1 7 7 5 15 14 16 10 10 6 9 14 15 13 14 12 5 10 11 11 12 13 18 19 26 23 27 35 23 28 18 10 11 14
27 24 29 18 14 12 14 16 9 6 3 4 4 8 8 15 13 6 8 8 5 8 8 13 15 15 8 6 11 15 18 18 21 25 29 32 31 21 18 15 10 7 7 12
19 19 21 23 17 10 11 18 18 7 0 2 5 14 18 10 13 11 12 6 6 8 3 9 8 18 11 11 15 21 21 17 19 26 26 32 18 21 13 9 4 4 9 11
12 9 25 15 18 19 12 9 11 13 4 4 6 12 17 12 12 10 9 2 4 8 7 9 9 13 14 13 12 19 22 22 25 22 16 14 17 16 10 7 5 6 7 8
25 12 9 21 22 22 18 13 11 9 8 7 2 8 15 11 8 9 9 8 7 5 8 8 9 12 16 10 7 11 16 20 15 14 16 14 13 14 11 9 7 5 5 6
25 11 22 21 14 14 16 13 13 11 10 11 9 23 17 16 15 12 13 14 9 7 7 6 6 6 6 9 9 11 15 13 12 9 8 7 5 4 6 6 5 5 5 7
20 16 14 5 14 15 13 13 11 17 19 16 8 25 22 15 16 14 15 17 11 10 10 8 7 6 8 9 11 14 13 8 8 7 6 6 7 8 6 3 4 7 9 10
21 24 20 18 11 12 10 9 8 9 9 16 26 30 21 24 16 14 12 16 18 16 12 11 12 11 11 12 14 13 9 8 6 5 7 10 12 12 11 10 11 12 14 15
23 24 24 23 19 14 13 11 10 9 9 11 11 18 16 20 24 14 14 16 16 17 15 13 14 13 11 11 11 7 4 5 5 7 11 14 16 17 17 16 16 17 19 20
17 18 26 25 21 15 10 14 17 14 10 8 11 14 17 16 17 18 22 13 17 18 17 12 15 14 12 7 6 5 4 3 6 11 13 14 15 16 18 18 18 19 21 22
4 10 9 19 15 8 7 16 20 20 13 9 11 11 15 13 20 20 15 9 13 16 20 16 16 15 10 4 4 5 6 7 10 14 16 17 17 19 21 22 23 24 25 25
5 4 3 5 7 1 15 17 20 20 13 9 13 14 10 12 19 18 14 8 11 16 17 17 18 18 10 6 13 13 12 14 17 18 17 18 19 21 25 27 28 29 28 25
9 9 5 3 6 8 13 14 13 14 18 13 12 15 11 11 18 21 19 13 12 13 15 17 19 20 15 14 14 13 18 18 18 18 16 18 20 24 27 30 30 28 27 26
11 7 9 9 4 5 12 14 13 14 18 16 13 12 12 16 21 23 21 15 11 13 13 14 16 15 15 15 14 16 16 18 17 18 18 19 23 27 30 31 28 26 26 26
7 5 6 7 7 6 11 11 10 5 13 12 17 12 12 18 20 16 17 14 12 13 14 15 13 11 13 14 15 14 14 15 18 16 17 19 25 29 31 29 26 25 26 26
11 5 5 5 5 5 9 12 11 11 12 14 13 17 15 19 19 18 18 16 10 17 15 12 10 12 12 13 12 13 16 17 17 17 18 23 28 33 31 28 26 25 25 25
12 10 8 6 5 6 3 7 10 11 9 10 10 16 24 23 26 18 13 17 14 14 13 11 12 13 11 12 14 15 18 18 17 18 22 28 32 34 30 27 25 25 25 25
17 14 13 12 12 11 8 7 10 11 12 13 13 15 21 28 22 20 15 21 18 18 16 14 15 13 14 15 17 18 18 16 18 22 28 32 34 30 26 25 25 25 25 25
18 17 18 21 20 21 18 15 14 13 13 14 16 20 26 34 27 20 17 24 20 21 19 20 17 15 18 20 19 17 16 18 22 27 31 33 29 26 25 24 23 24 24 25
22 19 18 16 10 13 18 23 22 20 18 19 23 25 35 30 23 20 18 16 17 16 18 19 19 18 18 20 18 17 18 22 26 30 31 27 25 23 22 21 22 23 24 24
Wind_Direction
214 212 208 263 296 311 302 302 117 15 49 255 254 272 325 332 315 296 307 324 83 51 344 21 64 104 143 183 203 171 182 284 328 299 297 298 297 301 311 293 299 301 287 277
212 217 218 267 287 275 301 260 298 329 326 326 301 279 290 299 310 306 289 258 140 161 174 283 69 121 131 143 155 179 154 170 331 323 290 286 288 297 301 300 302 288 296 289
211 207 230 251 271 266 278 203 64 12 11 340 322 306 254 262 265 279 273 266 252 187 169 187 197 179 187 173 164 139 116 109 83 317 319 307 295 295 296 295 288 293 293 281
219 213 227 240 269 263 254 220 321 322 326 317 329 309 311 259 256 257 264 256 248 223 217 186 186 189 179 147 169 176 214 227 295 309 309 316 313 302 285 279 278 279 277 282
207 222 222 234 268 250 264 282 298 310 307 303 303 315 300 297 298 254 256 262 249 219 222 214 198 183 176 189 203 207 211 248 255 268 269 298 274 267 261 259 268 272 273 279
209 209 203 214 192 232 267 265 276 291 292 320 322 245 285 257 283 255 274 255 235 229 222 224 222 209 210 227 234 230 241 248 265 267 272 285 270 273 254 261 254 247 263 279
211 214 215 220 241 242 265 243 327 334 27 227 308 232 274 287 284 272 267 216 266 240 225 227 237 232 258 263 256 248 253 264 274 285 291 297 278 292 356 255 252 266 267 239
221 227 222 226 227 219 241 246 223 204 203 257 228 249 294 314 318 267 277 281 238 137 208 254 250 233 208 302 261 253 267 280 296 295 305 284 282 12 5 36 249 230 332 244
209 225 226 236 222 228 247 248 244 265 64 294 238 275 296 290 295 274 280 269 217 171 247 263 265 221 245 295 250 245 264 277 285 297 306 302 332 342 351 0 13 275 287 293
219 209 224 211 209 218 238 264 230 230 137 233 261 272 270 314 316 294 266 168 257 241 252 265 258 221 244 281 253 246 264 288 303 303 323 341 321 323 342 332 334 325 315 307
223 222 204 215 227 224 227 244 237 232 221 171 226 264 302 311 304 278 249 233 325 271 274 258 256 261 258 277 261 254 278 293 310 323 329 328 325 337 351 355 357 349 339 327
222 230 249 242 229 227 231 242 262 226 226 218 242 269 281 294 296 275 241 246 281 246 256 236 239 238 219 235 256 265 290 305 314 319 330 331 343 327 344 349 346 348 332 315
211 222 233 241 223 224 236 254 273 251 249 249 217 266 286 273 294 288 241 245 253 260 242 253 221 215 230 244 261 279 288 310 333 331 334 359 23 31 40 9 328 327 327 324
233 228 221 222 209 211 219 224 263 236 265 261 249 267 266 265 281 267 268 238 238 242 243 234 218 219 232 248 266 279 296 321 320 332 5 17 19 14 6 354 342 336 334 332
221 232 235 255 244 257 234 238 260 272 285 259 291 285 297 267 258 262 249 242 238 229 237 225 223 223 233 246 260 256 292 306 322 339 354 355 355 351 346 337 332 328 324 322
214 219 241 247 242 241 268 250 257 271 262 308 289 274 284 276 243 234 245 230 236 225 228 216 216 214 220 219 212 214 245 296 333 337 327 321 320 326 329 326 322 318 316 313
182 214 234 218 215 245 269 284 257 257 261 273 302 282 267 268 221 228 263 225 236 233 223 218 209 201 188 182 220 227 244 274 289 291 289 293 308 316 318 319 319 317 315 312
310 294 258 218 249 135 291 269 236 243 244 262 288 288 262 249 227 235 220 215 225 204 205 207 205 202 211 216 230 233 246 260 276 276 283 288 301 310 319 321 320 318 316 315
268 285 260 226 247 250 279 266 251 239 247 261 289 275 248 223 215 224 208 205 203 200 205 207 208 208 222 230 236 246 255 264 281 285 288 295 303 315 320 321 318 315 313 312
241 246 234 228 217 200 270 283 277 268 267 266 264 259 230 214 216 225 209 220 232 263 227 224 211 215 229 240 250 264 266 274 287 293 291 299 312 320 320 316 313 312 312 312
279 278 255 235 236 225 240 246 262 236 312 249 244 236 229 233 239 228 214 224 231 233 221 206 205 222 243 255 257 269 274 285 292 289 290 301 312 316 315 313 312 313 314 313
257 238 208 203 205 237 230 248 249 279 287 297 271 226 228 237 219 211 215 220 245 234 215 207 213 241 244 255 271 278 283 291 290 291 302 308 310 314 315 312 315 314 311 309
225 241 226 219 213 251 247 242 246 261 286 281 285 254 225 206 208 226 249 263 253 226 212 200 222 240 257 260 274 278 286 289 289 300 307 310 311 312 310 310 313 314 315 315
234 235 232 253 268 282 271 240 236 259 272 271 260 265 234 197 194 216 235 240 246 221 218 222 228 247 261 270 273 280 286 283 293 301 306 307 307 307 310 314 317 316 313 311
242 244 256 270 274 274 262 241 234 241 255 260 251 236 213 206 209 218 237 235 233 224 227 225 238 241 253 265 280 282 281 293 301 301 300 303 304 309 313 315 313 311 312 312
242 249 257 275 276 264 254 233 230 226 223 226 237 224 207 211 223 238 241 223 223 222 228 230 232 248 258 268 277 277 286 294 296 299 301 303 310 311 313 312 311 314 313 313
Height
3165 3169 3168 3169 3169 3168 3167 3168 3168 3166 3166 3166 3164 3164 3164 3165 3165 3166 3166 3167 3168 3169 3169 3169 3170 3172 3174 3175 3177 3181 3182 3184 3185 3185 3185 3183 3182 3182 3182 3179 3175 3178 3178 3177
3164 3166 3168 3168 3168 3167 3167 3168 3169 3168 3166 3165 3164 3162 3162 3162 3162 3163 3164 3166 3167 3168 3169 3170 3170 3170 3172 3175 3177 3180 3181 3182 3183 3183 3181 3181 3180 3180 3179 3177 3177 3177 3177 3176
3161 3166 3167 3168 3167 3167 3167 3167 3167 3168 3166 3165 3163 3160 3160 3160 3160 3160 3161 3163 3164 3165 3166 3168 3169 3170 3171 3173 3176 3178 3179 3180 3180 3180 3181 3180 3179 3179 3178 3176 3174 3174 3174 3173
3160 3163 3165 3166 3166 3166 3166 3167 3167 3166 3166 3165 3164 3162 3159 3158 3158 3158 3158 3159 3161 3163 3163 3165 3167 3168 3170 3171 3174 3176 3178 3179 3179 3179 3179 3179 3180 3179 3178 3174 3172 3171 3171 3172
3158 3160 3163 3165 3165 3165 3166 3166 3166 3164 3164 3164 3163 3164 3156 3156 3155 3155 3155 3157 3157 3159 3162 3163 3165 3167 3169 3171 3173 3175 3176 3178 3177 3177 3178 3178 3177 3176 3173 3171 3167 3167 3167 3169
3156 3158 3161 3163 3164 3163 3165 3165 3164 3164 3164 3164 3162 3164 3154 3155 3154 3154 3154 3154 3155 3157 3159 3162 3164 3165 3168 3170 3172 3173 3174 3174 3174 3175 3174 3170 3167 3152 3162 3164 3163 3160 3162 3164
3151 3154 3157 3160 3162 3162 3163 3164 3165 3166 3166 3165 3161 3161 3153 3153 3152 3152 3152 3152 3152 3154 3156 3159 3162 3164 3167 3169 3171 3172 3172 3171 3170 3169 3169 3163 3161 3156 3152 3156 3157 3158 3156 3158
3148 3152 3154 3157 3160 3161 3161 3162 3163 3167 3167 3162 3161 3157 3151 3150 3150 3149 3151 3151 3151 3151 3154 3156 3158 3161 3163 3165 3166 3169 3170 3170 3167 3167 3163 3159 3159 3149 3157 3150 3152 3155 3152 3156
3143 3147 3151 3154 3157 3160 3159 3159 3161 3161 3162 3162 3159 3154 3151 3148 3147 3148 3149 3149 3150 3151 3152 3152 3154 3156 3159 3161 3162 3163 3165 3167 3166 3164 3160 3153 3156 3154 3154 3155 3156 3155 3154 3152
3142 3145 3148 3152 3154 3156 3157 3158 3158 3158 3163 3164 3156 3153 3149 3148 3146 3145 3146 3147 3149 3150 3150 3150 3152 3154 3157 3159 3158 3161 3163 3163 3161 3162 3158 3154 3157 3155 3154 3153 3152 3151 3149 3149
3139 3142 3145 3147 3149 3151 3154 3154 3155 3155 3156 3156 3158 3150 3148 3147 3145 3143 3145 3146 3147 3148 3149 3151 3152 3153 3156 3158 3158 3160 3160 3160 3157 3154 3155 3155 3155 3152 3150 3149 3150 3150 3150 3149
3135 3138 3140 3142 3145 3147 3149 3150 3151 3151 3152 3151 3150 3146 3146 3146 3144 3142 3143 3144 3146 3147 3148 3150 3152 3154 3156 3157 3158 3158 3156 3155 3156 3157 3156 3155 3153 3153 3151 3151 3152 3151 3150 3150
3130 3133 3136 3138 3142 3142 3144 3146 3146 3146 3147 3146 3146 3143 3143 3143 3143 3141 3140 3141 3144 3147 3148 3149 3151 3152 3154 3155 3154 3154 3154 3154 3154 3154 3154 3152 3151 3151 3151 3153 3153 3151 3149 3148
3127 3128 3130 3133 3136 3139 3141 3141 3142 3143 3142 3139 3138 3137 3139 3140 3141 3141 3140 3140 3143 3145 3146 3148 3149 3150 3152 3153 3153 3153 3152 3151 3151 3152 3152 3151 3149 3149 3149 3150 3149 3148 3146 3145
3121 3124 3127 3129 3132 3134 3136 3138 3138 3138 3138 3137 3135 3134 3133 3134 3136 3139 3138 3138 3139 3142 3144 3145 3146 3148 3149 3151 3152 3152 3151 3151 3150 3151 3150 3149 3147 3147 3146 3147 3146 3144 3144 3141
3117 3120 3123 3125 3128 3131 3132 3134 3134 3134 3134 3133 3131 3131 3131 3129 3131 3133 3134 3136 3136 3140 3143 3144 3146 3147 3149 3150 3150 3150 3151 3150 3149 3148 3149 3149 3148 3147 3145 3144 3143 3141 3138 3136
3118 3119 3119 3122 3125 3125 3128 3130 3130 3130 3131 3129 3128 3127 3126 3127 3127 3129 3130 3132 3134 3137 3139 3141 3143 3145 3147 3147 3148 3148 3148 3149 3148 3149 3149 3148 3146 3144 3143 3140 3137 3135 3132 3130
3117 3118 3118 3119 3120 3123 3124 3122 3122 3123 3125 3124 3124 3123 3122 3122 3125 3127 3129 3131 3132 3134 3138 3139 3141 3143 3144 3145 3146 3147 3146 3147 3146 3146 3145 3144 3143 3141 3138 3135 3132 3128 3125 3123
3115 3115 3116 3116 3117 3119 3120 3120 3120 3118 3119 3120 3121 3120 3118 3118 3121 3124 3126 3128 3130 3132 3133 3135 3138 3140 3143 3143 3143 3143 3144 3143 3142 3141 3140 3140 3138 3135 3132 3129 3126 3123 3120 3117
3112 3112 3114 3114 3115 3115 3116 3116 3117 3116 3114 3116 3117 3116 3115 3116 3118 3120 3123 3126 3129 3130 3131 3133 3134 3137 3139 3140 3140 3141 3140 3139 3137 3136 3137 3136 3134 3130 3127 3124 3121 3118 3114 3111
3108 3109 3110 3109 3110 3111 3112 3112 3113 3115 3117 3111 3112 3113 3114 3115 3117 3120 3122 3124 3126 3126 3127 3129 3132 3134 3135 3136 3137 3136 3135 3135 3135 3135 3134 3132 3129 3125 3121 3117 3115 3112 3108 3106
3106 3106 3106 3106 3106 3108 3108 3109 3110 3111 3110 3109 3109 3109 3111 3113 3116 3117 3118 3120 3121 3123 3124 3127 3130 3133 3132 3132 3133 3133 3134 3134 3133 3132 3130 3128 3125 3120 3115 3112 3109 3106 3104 3101
3103 3103 3103 3104 3102 3103 3104 3104 3104 3105 3106 3106 3105 3104 3105 3107 3111 3114 3116 3117 3118 3120 3122 3124 3126 3129 3129 3130 3132 3131 3132 3132 3130 3128 3126 3123 3119 3114 3111 3107 3103 3100 3097 3094
3096 3097 3097 3099 3100 3099 3101 3101 3100 3101 3102 3102 3102 3102 3102 3105 3107 3111 3112 3113 3115 3116 3119 3122 3122 3126 3128 3129 3131 3129 3128 3127 3126 3123 3121 3118 3114 3110 3105 3101 3098 3094 3091 3088
3092 3091 3091 3092 3094 3094 3095 3096 3096 3096 3097 3098 3098 3098 3099 3102 3104 3106 3107 3109 3111 3113 3116 3119 3122 3122 3125 3127 3125 3125 3125 3124 3123 3122 3119 3113 3109 3104 3099 3096 3093 3090 3087 3084
3085 3087 3088 3088 3089 3089 3089 3089 3090 3090 3090 3091 3092 3093 3095 3098 3101 3103 3104 3106 3109 3112 3113 3117 3118 3119 3120 3121 3122 3122 3121 3121 3120 3118 3113 3107 3102 3099 3095 3092 3088 3085 3082 3080